• In Belgium
  • List of Countries
  • For 7 days
  • Water Temperature
  • Satellite Maps
  • Weather Map
  • Weather Widgets
  • user-avatar
    Login

    Hourly Weather Vradievka

    Today, 18 September, Tuesday

    Time Temperature Precipitation Wind Pressure Humidity
    00:00 +14°C° 0 mm 0 mps 754 mmHg 51%
    01:00 +13°C° 0 mm 0 mps 754 mmHg 52%
    02:00 +13°C° 0 mm 0 mps 753 mmHg 53%
    03:00 +14°C° 0 mm 1 mps 753 mmHg 54%
    04:00 +14°C° 0 mm 1 mps 753 mmHg 56%
    05:00 +13°C° 0 mm 1 mps 753 mmHg 57%
    06:00 +15°C° 0 mm 1 mps 754 mmHg 54%
    07:00 +16°C° 0 mm 1 mps 754 mmHg 52%
    08:00 +19°C° 0 mm 1 mps 754 mmHg 47%
    09:00 +20°C° 0 mm 1 mps 754 mmHg 45%
    10:00 +21°C° 0 mm 2 mps 754 mmHg 42%
    11:00 +23°C° 0 mm 2 mps 754 mmHg 40%
    12:00 +24°C° 0 mm 2 mps 754 mmHg 38%
    13:00 +25°C° 0 mm 2 mps 753 mmHg 36%
    14:00 +25°C° 0 mm 2 mps 753 mmHg 35%
    15:00 +25°C° 0 mm 2 mps 753 mmHg 36%
    16:00 +25°C° 0 mm 2 mps 753 mmHg 38%
    17:00 +25°C° 0 mm 1 mps 752 mmHg 40%
    18:00 +23°C° 0 mm 1 mps 752 mmHg 43%
    19:00 +21°C° 0 mm 1 mps 753 mmHg 46%
    20:00 +20°C° 0 mm 1 mps 753 mmHg 50%
    21:00 +19°C° 0 mm 1 mps 753 mmHg 51%
    22:00 +19°C° 0 mm 1 mps 753 mmHg 52%
    23:00 +18°C° 0 mm 1 mps 753 mmHg 54%

    Tomorrow, 19 September, Wednesday

    Time Temperature Precipitation Wind Pressure Humidity
    00:00 +18°C° 0 mm 1 mps 753 mmHg 55%
    01:00 +18°C° 0 mm 1 mps 753 mmHg 57%
    02:00 +16°C° 0 mm 1 mps 753 mmHg 58%
    03:00 +16°C° 0 mm 1 mps 753 mmHg 60%
    04:00 +16°C° 0 mm 1 mps 753 mmHg 61%
    05:00 +15°C° 0 mm 1 mps 753 mmHg 62%
    06:00 +18°C° 0 mm 1 mps 753 mmHg 58%
    07:00 +19°C° 0 mm 1 mps 753 mmHg 54%
    08:00 +20°C° 0 mm 1 mps 754 mmHg 50%
    09:00 +22°C° 0 mm 1 mps 754 mmHg 46%
    10:00 +24°C° 0 mm 1 mps 754 mmHg 41%
    11:00 +26°C° 0 mm 2 mps 754 mmHg 37%
    12:00 +26°C° 0 mm 2 mps 753 mmHg 35%
    13:00 +27°C° 0 mm 2 mps 753 mmHg 33%
    14:00 +28°C° 0 mm 2 mps 753 mmHg 31%
    15:00 +27°C° 0 mm 2 mps 753 mmHg 33%
    16:00 +27°C° 0 mm 1 mps 753 mmHg 35%
    17:00 +27°C° 0 mm 1 mps 752 mmHg 37%
    18:00 +25°C° 0 mm 1 mps 752 mmHg 40%
    19:00 +23°C° 0 mm 1 mps 753 mmHg 42%
    20:00 +20°C° 0 mm 0 mps 753 mmHg 45%
    21:00 +21°C° 0 mm 1 mps 753 mmHg 46%
    22:00 +21°C° 0 mm 1 mps 753 mmHg 48%
    23:00 +20°C° 0 mm 1 mps 753 mmHg 49%

    Day after tomorrow, 20 September, Thursday

    Time Temperature Precipitation Wind Pressure Humidity
    00:00 +20°C° 0 mm 1 mps 753 mmHg 51%
    01:00 +19°C° 0 mm 1 mps 753 mmHg 52%
    02:00 +19°C° 0 mm 1 mps 753 mmHg 53%
    03:00 +18°C° 0 mm 1 mps 752 mmHg 54%
    04:00 +18°C° 0 mm 1 mps 752 mmHg 55%
    05:00 +18°C° 0 mm 1 mps 752 mmHg 56%
    06:00 +19°C° 0 mm 1 mps 752 mmHg 53%
    07:00 +21°C° 0 mm 1 mps 752 mmHg 49%
    08:00 +22°C° 0 mm 1 mps 753 mmHg 46%
    09:00 +24°C° 0 mm 1 mps 753 mmHg 42%
    10:00 +26°C° 0 mm 1 mps 753 mmHg 37%
    11:00 +27°C° 0 mm 1 mps 753 mmHg 33%
    12:00 +28°C° 0 mm 1 mps 752 mmHg 32%
    13:00 +29°C° 0 mm 1 mps 752 mmHg 30%
    14:00 +29°C° 0 mm 1 mps 752 mmHg 28%
    15:00 +29°C° 0 mm 1 mps 751 mmHg 30%
    16:00 +28°C° 0 mm 1 mps 751 mmHg 32%
    17:00 +28°C° 0 mm 1 mps 751 mmHg 34%
    18:00 +26°C° 0 mm 1 mps 751 mmHg 36%
    19:00 +24°C° 0 mm 1 mps 751 mmHg 39%
    20:00 +23°C° 0 mm 1 mps 751 mmHg 41%
    21:00 +22°C° 0 mm 1 mps 751 mmHg 43%
    22:00 +22°C° 0 mm 1 mps 751 mmHg 44%
    23:00 +21°C° 0 mm 1 mps 751 mmHg 46%

    21 September, Friday

    Time Temperature Precipitation Wind Pressure Humidity
    00:00 +21°C° 0 mm 1 mps 751 mmHg 48%
    01:00 +20°C° 0 mm 1 mps 751 mmHg 49%
    02:00 +20°C° 0 mm 1 mps 751 mmHg 51%
    03:00 +19°C° 0 mm 1 mps 751 mmHg 53%
    04:00 +19°C° 0 mm 1 mps 751 mmHg 54%
    05:00 +19°C° 0 mm 1 mps 751 mmHg 56%
    06:00 +20°C° 0 mm 1 mps 751 mmHg 53%
    07:00 +21°C° 0 mm 1 mps 751 mmHg 50%
    08:00 +23°C° 0 mm 1 mps 751 mmHg 47%
    09:00 +25°C° 0 mm 2 mps 751 mmHg 43%
    10:00 +26°C° 0 mm 2 mps 751 mmHg 38%
    11:00 +28°C° 0 mm 2 mps 751 mmHg 34%
    12:00 +28°C° 0 mm 2 mps 751 mmHg 32%
    13:00 +29°C° 0 mm 2 mps 750 mmHg 30%
    14:00 +30°C° 0 mm 2 mps 750 mmHg 28%
    15:00 +29°C° 0 mm 1 mps 750 mmHg 29%
    16:00 +29°C° 0 mm 1 mps 749 mmHg 31%
    17:00 +28°C° 0 mm 1 mps 749 mmHg 33%
    18:00 +27°C° 0 mm 1 mps 749 mmHg 35%
    19:00 +25°C° 0 mm 1 mps 749 mmHg 38%
    20:00 +23°C° 0 mm 2 mps 749 mmHg 40%
    21:00 +23°C° 0 mm 2 mps 749 mmHg 42%
    22:00 +22°C° 0 mm 1 mps 749 mmHg 43%
    23:00 +21°C° 0 mm 1 mps 749 mmHg 45%

    22 September, Saturday

    Time Temperature Precipitation Wind Pressure Humidity
    00:00 +21°C° 0 mm 1 mps 749 mmHg 46%
    01:00 +21°C° 0 mm 1 mps 748 mmHg 47%
    02:00 +20°C° 0 mm 1 mps 748 mmHg 48%
    03:00 +20°C° 0 mm 1 mps 748 mmHg 48%
    04:00 +19°C° 0 mm 1 mps 748 mmHg 49%
    05:00 +19°C° 0 mm 1 mps 748 mmHg 50%
    06:00 +20°C° 0 mm 1 mps 748 mmHg 48%
    07:00 +21°C° 0 mm 2 mps 748 mmHg 45%
    08:00 +23°C° 0 mm 2 mps 748 mmHg 43%
    09:00 +25°C° 0 mm 2 mps 748 mmHg 40%
    10:00 +27°C° 0 mm 3 mps 748 mmHg 36%
    11:00 +28°C° 0 mm 3 mps 748 mmHg 32%
    12:00 +29°C° 0 mm 4 mps 747 mmHg 31%
    13:00 +29°C° 0 mm 4 mps 747 mmHg 29%
    14:00 +30°C° 0 mm 4 mps 746 mmHg 28%
    15:00 +29°C° 0 mm 4 mps 746 mmHg 30%
    16:00 +28°C° 0 mm 4 mps 745 mmHg 32%
    17:00 +28°C° 0 mm 3 mps 745 mmHg 34%
    18:00 +26°C° 0 mm 3 mps 745 mmHg 38%
    19:00 +24°C° 0 mm 3 mps 745 mmHg 42%
    20:00 +21°C° 0 mm 3 mps 745 mmHg 45%
    21:00 +20°C° 0 mm 3 mps 744 mmHg 50%
    22:00 +20°C° 0 mm 4 mps 744 mmHg 54%
    23:00 +19°C° 0 mm 4 mps 744 mmHg 58%

    23 September, Sunday

    Time Temperature Precipitation Wind Pressure Humidity
    00:00 +18°C° 0 mm 4 mps 744 mmHg 62%
    01:00 +18°C° 0 mm 4 mps 744 mmHg 67%
    02:00 +17°C° 0 mm 4 mps 744 mmHg 71%
    03:00 +15°C° 0 mm 5 mps 744 mmHg 73%
    04:00 +14°C° 0 mm 6 mps 744 mmHg 74%
    05:00 +14°C° 0 mm 6 mps 745 mmHg 75%
    06:00 +12°C° 1.3 mm 7 mps 745 mmHg 77%
    07:00 +11°C° 1.3 mm 8 mps 745 mmHg 79%
    08:00 +10°C° 1.3 mm 8 mps 745 mmHg 81%
    09:00 +10°C° 1 mm 9 mps 745 mmHg 80%
    10:00 +10°C° 1 mm 9 mps 745 mmHg 79%
    11:00 +8°C° 1 mm 9 mps 746 mmHg 77%
    12:00 +10°C° 0.1 mm 9 mps 746 mmHg 75%
    13:00 +10°C° 0.1 mm 9 mps 746 mmHg 72%
    14:00 +9°C° 0.1 mm 10 mps 746 mmHg 69%
    15:00 +11°C° 0 mm 9 mps 746 mmHg 67%
    16:00 +11°C° 0 mm 8 mps 746 mmHg 65%
    17:00 +11°C° 0 mm 8 mps 746 mmHg 63%
    18:00 +11°C° 0 mm 7 mps 746 mmHg 65%
    19:00 +10°C° 0 mm 6 mps 746 mmHg 67%
    20:00 +10°C° 0 mm 5 mps 746 mmHg 69%
    21:00 +10°C° 0 mm 5 mps 746 mmHg 70%
    22:00 +10°C° 0 mm 5 mps 746 mmHg 71%
    23:00 +10°C° 0 mm 5 mps 746 mmHg 73%
    Show more